Location: ????????
(60.5616°N, 46.8254°E)
Time: 19:29:44
(UTC+00:00)

Cosmos 1939 Rocket - Pass Details

Date: 18 February 2020
Orbit: 532 x 585 km, 97.4° (Epoch: 07 April)

Event Time Altitude Azimuth Distance (km) Brightness Sun altitude
Rises 14:34:40 0° 147° (SSE) 2,797 6.2 -6.3°
Reaches altitude 10° 14:36:50 10° 143° (SE) 1,906 5.3 -6.5°
Maximum altitude 14:40:52 53° 67° (ENE) 725 3.1 -7.0°
Drops below altitude 10° 14:44:57 10° 350° (N) 1,926 5.6 -7.5°
Sets 14:47:09 0° 346° (NNW) 2,830 6.5 -7.8°
